Wind_Speed
24 24 24 23 23 22 21 21 21 21 23 22 19 16 13 10 13 16 15 13 9 6 7 8 9 9 10 13 15 13 11 11 12 13 15 14 12 13 13 14 15 14 13 13 12 11 10 11 12 10 9 10 10 6 4 7 11 11 10 12 13 10 6 8 10 8 9 13 15 15 17 19 17 15 15 16 16 16 14 12 11 12 13 13 13 13 10
23 22 21 22 21 20 20 20 20 20 20 20 19 16 13 14 19 18 11 5 5 7 7 7 8 9 11 13 15 15 14 13 13 12 13 12 11 12 12 13 15 14 13 14 14 13 11 11 12 12 10 9 12 14 12 9 9 8 6 8 11 10 7 8 9 8 8 11 12 12 14 14 13 13 16 18 20 22 18 14 12 13 15 17 15 12 10
22 21 20 19 18 18 19 19 18 18 18 17 16 14 15 16 15 13 10 7 9 10 9 8 8 9 10 12 12 13 13 14 17 16 14 13 12 11 12 14 14 14 14 15 15 15 12 10 9 10 11 9 11 15 15 12 12 10 6 3 7 10 9 9 10 10 10 11 11 10 11 11 11 14 19 21 23 25 19 13 13 13 14 17 15 11 10
22 21 20 19 17 17 17 17 17 17 17 16 14 12 13 12 8 8 8 9 11 13 13 12 10 8 9 9 10 12 11 12 17 18 16 16 16 12 11 13 14 14 16 15 15 17 16 13 9 9 9 9 9 12 13 13 13 9 6 6 5 7 8 11 13 14 12 11 11 11 12 13 14 17 21 21 22 24 20 13 13 13 11 13 14 13 14
22 22 21 20 19 18 18 17 16 15 15 15 13 11 11 9 6 6 5 5 9 12 12 10 8 8 9 7 7 11 11 9 11 14 14 16 17 14 12 14 14 14 16 16 14 15 16 15 14 12 11 9 7 9 10 11 11 6 7 9 9 7 9 14 17 18 18 16 15 15 15 15 17 20 22 21 20 22 21 17 16 15 12 12 14 14 17
24 23 23 22 21 20 19 18 16 15 14 13 12 12 11 9 9 10 8 6 7 7 6 8 8 10 11 8 8 12 12 11 9 9 11 14 16 13 12 16 17 16 15 13 12 14 14 15 16 14 12 11 9 8 10 12 12 9 10 12 9 6 9 13 17 19 21 22 20 19 18 17 18 19 21 22 22 22 21 20 21 19 14 13 13 16 18
25 25 24 23 22 21 20 19 17 16 15 12 11 11 11 11 12 12 9 7 9 11 14 15 13 12 11 8 9 11 12 13 12 7 7 11 14 13 13 16 18 20 19 14 12 13 12 13 14 13 13 13 11 10 10 12 14 13 11 10 9 7 9 13 16 19 21 23 24 24 22 20 20 22 22 23 24 25 24 23 23 23 21 19 17 18 19
25 25 24 24 22 21 20 19 18 16 15 14 12 11 11 11 11 11 9 10 12 13 14 13 10 10 9 8 9 11 12 13 10 8 8 9 9 12 14 13 12 15 19 17 14 13 12 11 10 9 11 12 11 10 9 10 13 14 11 9 9 9 9 10 12 14 17 21 23 24 24 23 23 23 24 24 24 25 25 24 23 22 22 22 23 22 18
24 24 23 24 23 21 20 19 18 16 14 14 13 12 11 10 11 10 10 9 9 9 9 8 7 6 7 7 7 8 9 9 10 10 11 13 12 10 9 7 7 7 10 13 13 12 9 9 8 6 7 8 8 7 7 8 10 11 10 8 8 8 8 7 8 9 11 16 20 22 23 23 23 22 23 24 23 21 21 21 21 21 20 22 23 20 14
24 23 23 22 22 21 20 20 18 16 15 15 15 12 10 9 9 9 9 8 8 8 7 6 7 7 6 5 6 6 8 9 10 9 9 10 10 8 11 11 8 6 6 6 6 7 7 8 9 10 10 12 13 11 9 10 8 8 9 8 7 6 6 6 6 8 9 13 17 19 19 18 17 17 19 22 22 21 21 20 22 23 21 18 17 15 13
24 24 23 22 21 21 20 19 18 18 18 18 17 13 10 8 7 9 9 9 9 9 8 6 7 7 7 8 8 8 10 10 8 7 7 9 11 13 17 15 9 6 5 5 9 13 14 14 14 14 14 15 17 17 16 15 12 9 9 7 7 6 5 4 4 5 8 12 12 12 14 15 12 12 18 23 23 23 23 21 22 23 20 17 15 14 14
24 24 23 22 22 21 20 19 18 18 19 20 19 16 12 10 8 9 9 8 9 9 8 8 9 8 10 12 11 11 12 11 9 10 11 14 17 18 16 13 9 6 7 12 16 17 15 15 16 16 16 17 18 18 18 18 17 15 12 9 9 9 7 4 3 4 7 7 8 10 12 12 9 7 11 16 19 22 23 22 23 22 21 20 20 18 16
24 23 23 23 21 20 20 19 17 17 18 19 19 18 14 11 10 10 9 7 8 9 9 10 13 14 13 14 13 13 13 13 12 13 14 15 16 16 13 11 11 12 14 18 19 16 11 10 11 13 14 14 15 17 19 20 19 18 16 13 10 10 9 6 4 4 6 6 8 11 9 7 8 6 5 7 12 18 20 20 22 23 21 21 20 20 20
23 22 22 22 21 20 19 18 17 18 18 17 18 19 16 15 14 12 10 7 7 10 11 10 11 12 12 11 12 11 11 12 12 12 13 14 15 14 13 12 12 14 16 17 15 11 7 6 7 9 11 11 11 13 17 18 19 20 19 15 12 10 9 8 6 4 4 5 7 9 9 9 8 4 2 3 5 8 9 11 16 19 21 21 19 20 21
23 21 21 21 20 20 19 17 17 18 18 17 18 19 17 17 17 14 12 9 7 10 12 10 10 11 10 11 12 9 8 8 8 8 10 12 13 12 11 12 14 16 15 12 9 7 6 7 8 9 10 10 11 11 11 12 15 19 20 16 13 12 9 8 8 6 4 5 7 9 10 9 4 2 5 7 8 7 6 6 9 14 18 20 19 19 20
22 21 20 20 19 19 18 17 17 17 17 17 18 18 17 16 17 16 15 12 7 7 7 8 11 13 11 11 12 10 8 6 6 7 7 6 8 10 12 15 15 13 12 10 7 5 6 8 9 9 9 11 12 10 10 10 10 15 18 17 16 15 11 8 9 9 8 7 7 7 9 5 3 5 7 9 9 7 4 6 9 11 15 21 22 20 19
21 20 19 19 19 18 17 17 16 16 16 17 18 18 16 16 16 17 18 14 9 10 13 14 15 13 10 9 9 8 7 7 6 6 5 6 10 12 14 17 12 6 8 9 6 5 6 8 9 9 9 10 10 10 10 11 10 11 15 17 17 15 11 9 10 11 11 10 8 7 7 2 5 7 10 10 7 3 5 9 7 4 9 14 18 20 21
20 19 18 18 17 17 16 16 15 15 15 16 18 17 16 16 16 15 18 16 9 9 15 16 15 14 11 9 10 10 10 9 7 5 6 8 8 10 14 15 8 2 5 6 4 4 6 7 8 8 8 8 9 8 8 10 12 12 13 13 13 13 11 10 11 11 11 12 10 8 6 0 6 10 11 9 6 6 7 7 4 8 14 15 12 15 19
19 18 17 16 15 15 15 15 14 14 14 14 17 18 16 15 15 15 18 19 12 10 15 15 14 16 16 13 14 13 11 10 9 6 6 5 5 14 16 10 3 3 5 5 3 3 5 7 7 6 6 6 5 3 3 6 7 9 13 14 13 12 11 10 11 11 11 11 10 9 7 1 7 11 9 4 5 6 4 7 11 12 13 12 10 11 12
18 17 15 14 14 14 14 14 13 13 13 13 15 18 17 14 14 15 18 18 14 15 20 19 17 19 19 17 18 16 13 13 11 7 6 5 9 15 10 4 2 5 5 4 4 3 5 6 5 4 5 5 2 2 3 4 3 3 9 13 11 10 11 11 11 10 8 9 10 10 8 2 7 9 4 1 3 7 10 13 13 11 10 8 6 6 7
17 15 13 13 14 14 13 13 12 12 13 12 13 16 17 14 13 15 17 17 15 15 16 14 13 16 17 17 19 18 16 16 14 11 11 11 10 9 4 1 5 6 3 3 4 3 2 3 3 3 3 3 1 2 2 1 2 5 5 7 7 7 8 9 9 9 9 11 10 5 2 5 8 7 3 3 8 14 15 13 9 7 7 5 3 1 3
15 14 12 12 13 13 12 12 12 12 12 11 11 14 14 13 12 13 14 17 19 20 18 17 17 20 21 21 22 22 21 21 19 17 15 14 12 10 9 10 10 5 2 4 4 2 3 4 2 2 2 2 2 2 3 1 2 4 4 5 4 1 2 4 5 6 4 4 1 3 5 7 9 9 5 6 11 13 12 9 6 4 4 4 5 6 6
13 12 12 12 12 12 11 11 11 10 10 10 11 13 12 11 11 11 12 15 18 21 23 23 23 23 24 24 24 23 23 23 23 22 20 16 13 13 14 14 10 6 4 4 4 5 5 4 4 3 2 1 1 2 4 3 4 4 3 2 2 4 3 3 2 3 3 3 5 6 6 8 11 13 11 9 10 11 9 6 5 6 9 12 12 13 13
11 11 11 12 12 11 10 10 9 9 9 9 10 11 11 11 12 12 12 13 14 16 17 18 19 18 17 17 16 15 17 20 22 23 23 20 16 12 11 10 9 7 5 4 6 9 7 5 5 4 2 2 1 1 3 3 2 2 2 3 4 6 5 3 1 4 4 2 6 6 5 8 14 17 15 12 11 11 9 8 8 9 14 19 20 18 18
9 10 10 11 11 10 9 8 8 8 8 8 9 10 11 11 11 12 13 13 11 10 9 11 16 16 14 14 14 13 13 15 16 16 19 23 25 21 12 7 5 5 6 7 10 11 7 4 4 3 3 4 2 1 2 3 2 3 2 2 2 4 7 5 1 3 2 3 6 6 7 11 17 20 16 13 13 12 11 11 12 14 19 26 28 24 21
9 9 9 10 9 7 7 7 7 7 7 8 9 9 10 10 10 10 13 13 12 10 8 11 15 14 12 15 16 14 13 13 14 16 18 21 25 26 22 17 13 12 12 13 13 12 8 4 4 3 3 4 4 1 2 3 4 3 2 5 5 6 5 4 2 2 3 4 4 4 6 10 16 20 15 13 14 12 13 14 16 19 23 29 31 27 23
8 8 8 7 6 6 6 6 6 7 7 8 8 9 10 10 10 11 13 12 10 8 7 9 14 14 15 19 19 15 14 16 17 19 21 21 20 22 23 22 19 15 13 12 12 11 8 5 4 4 4 4 4 3 1 2 4 2 3 6 9 5 1 3 2 4 3 3 3 4 4 4 9 13 8 11 14 13 16 20 22 21 21 25 27 26 23
8 7 7 6 5 5 5 5 6 6 6 8 9 9 10 11 11 13 14 12 11 11 11 15 21 22 18 15 11 8 10 14 17 19 21 21 21 22 22 20 18 14 10 8 7 6 5 4 4 4 4 4 3 2 1 2 2 0 3 6 8 5 3 4 3 1 3 3 2 3 3 4 7 9 5 3 10 15 17 20 22 22 21 21 23 24 22
8 6 5 5 5 5 5 5 6 6 6 8 8 7 8 10 10 12 14 12 12 15 16 17 19 17 13 11 10 8 7 11 14 17 18 19 21 23 22 20 18 13 9 9 7 4 3 6 7 6 6 6 4 2 2 2 3 3 6 7 6 4 4 6 5 2 3 3 2 5 7 9 10 8 5 5 3 11 17 20 21 21 22 21 22 23 21
8 6 5 5 5 4 5 5 5 6 7 7 7 7 7 6 6 8 9 10 12 13 12 11 10 12 15 15 12 8 5 7 12 16 18 19 20 22 21 19 16 13 11 11 9 5 4 6 7 6 7 7 4 2 2 2 4 5 8 9 7 4 4 4 3 1 2 3 6 11 15 14 12 12 11 9 9 6 10 16 18 19 20 20 21 22 21
8 6 5 5 4 3 4 5 5 6 6 5 6 6 4 3 5 8 5 6 10 10 9 9 11 15 15 12 9 8 6 7 11 14 17 18 17 18 18 15 13 12 12 10 9 7 5 5 5 3 2 3 2 2 2 1 4 5 7 10 9 8 8 8 6 5 5 7 13 18 19 16 13 13 13 13 11 10 9 12 14 14 15 17 18 19 18
8 7 6 5 4 4 4 5 5 7 7 6 7 7 6 7 10 8 2 3 6 8 8 8 9 9 7 5 7 8 6 7 10 12 14 16 15 15 15 14 12 12 11 8 6 5 5 5 5 1 2 2 3 2 3 3 4 5 7 10 14 14 14 15 16 15 12 10 13 17 15 13 13 11 10 12 16 16 15 15 14 12 12 13 15 17 17
8 7 6 5 5 5 6 6 7 8 7 7 7 7 6 8 9 7 5 6 7 7 7 6 6 4 5 8 9 5 1 5 10 11 11 13 14 13 14 13 10 9 9 7 4 3 4 5 4 2 2 1 1 2 4 5 6 7 9 12 15 15 16 19 22 23 21 19 18 17 14 12 13 12 12 14 17 16 15 14 12 12 13 13 14 15 15
8 8 7 7 6 7 7 8 8 7 6 7 6 4 4 5 5 6 8 9 8 7 6 6 5 4 6 9 5 3 4 1 10 11 7 10 14 12 11 13 10 7 9 8 6 4 4 3 2 4 3 2 2 3 4 6 8 10 10 11 12 14 18 23 24 23 22 22 21 18 15 13 13 13 14 15 15 13 12 10 9 10 12 13 13 13 11
9 9 9 8 8 8 8 7 6 5 5 5 4 4 5 6 5 5 5 6 7 5 4 4 4 5 6 6 1 5 8 2 9 10 7 10 13 10 9 11 8 5 8 8 7 4 2 1 2 3 3 3 4 3 4 6 9 10 9 9 9 11 14 17 18 18 18 19 18 16 14 14 15 15 15 15 13 12 12 11 10 9 10 11 10 9 8
9 9 8 8 7 7 6 5 3 3 4 4 4 5 7 8 7 5 5 6 7 6 5 5 5 4 5 5 3 5 9 3 7 8 6 8 10 9 9 9 5 4 7 7 4 2 2 0 0 3 4 4 3 3 3 5 9 11 10 11 13 16 17 17 18 18 16 15 15 14 13 13 14 13 13 12 11 10 10 10 10 10 10 10 8 8 8
8 8 7 6 6 5 3 1 1 2 3 4 5 6 8 8 6 5 6 7 7 7 6 5 5 4 5 5 4 6 7 2 5 6 6 7 7 8 9 7 3 4 6 4 2 4 3 2 2 4 6 5 5 4 3 5 9 12 11 11 15 20 20 19 19 19 17 15 12 11 10 9 8 9 10 10 9 8 8 9 10 10 9 8 7 7 8
9 7 6 5 4 3 2 1 3 4 5 5 5 5 5 5 5 4 5 5 4 5 7 6 5 6 7 6 6 6 6 2 2 3 5 7 6 6 7 5 3 4 4 3 4 4 3 4 4 5 6 7 7 7 6 5 8 11 10 9 11 15 16 15 13 13 13 10 7 6 5 4 4 5 6 6 7 9 10 10 10 9 8 7 7 6 6
9 8 7 5 4 4 4 5 6 6 5 4 4 4 3 3 3 2 2 3 3 4 6 6 6 7 7 6 5 5 5 4 3 2 5 6 3 3 5 4 3 4 4 4 4 2 2 4 4 4 5 6 7 9 8 7 8 10 10 8 8 10 11 9 7 5 4 3 3 3 2 1 2 3 3 3 4 5 7 7 7 7 6 5 5 4 4
9 7 6 6 6 6 7 7 7 5 3 3 4 4 3 3 2 2 1 1 2 3 4 2 2 3 5 6 4 3 5 5 3 1 1 3 2 1 2 3 3 3 4 4 3 2 3 4 4 4 4 5 7 9 9 8 9 9 9 8 7 7 6 6 4 2 2 3 4 5 4 4 2 2 3 3 3 2 3 4 5 5 4 5 5 4 4
9 7 6 7 9 9 8 7 5 3 3 3 3 3 2 1 1 1 2 2 0 2 1 2 3 1 3 5 5 4 6 5 4 4 2 2 2 1 2 4 2 2 3 3 1 1 3 4 3 3 4 6 10 11 10 10 9 8 7 7 7 6 6 5 4 3 3 3 4 4 3 2 1 2 3 3 3 3 3 4 4 5 5 6 6 7 8
11 9 9 10 10 9 6 5 3 2 3 2 2 2 2 1 1 2 2 1 2 2 1 2 4 4 5 6 5 5 5 5 4 4 2 2 2 1 2 3 2 2 3 2 2 1 3 4 3 3 4 8 11 12 12 12 11 9 7 7 6 6 5 5 4 4 4 3 2 2 1 1 1 2 2 2 2 3 3 3 4 6 6 7 7 9 10
9 9 9 8 7 5 3 3 3 2 2 2 2 2 2 1 1 1 0 1 3 3 3 3 5 5 5 5 5 4 4 3 4 3 1 3 3 2 1 2 1 1 3 2 2 1 4 3 3 4 5 8 11 12 12 12 11 9 8 7 6 6 6 5 4 4 4 3 2 2 2 2 2 2 2 2 2 2 2 2 4 5 5 6 8 9 9
6 6 5 3 3 4 3 3 3 3 2 2 3 3 3 3 2 2 2 3 4 5 5 6 7 6 4 5 5 4 3 2 2 2 2 4 3 1 0 2 2 1 2 1 2 3 3 3 4 7 9 9 10 11 11 10 9 8 8 7 7 6 7 6 6 6 6 5 4 4 3 3 3 3 3 3 3 3 3 3 4 4 5 6 7 8 8
5 5 3 2 4 6 4 2 3 4 3 3 3 3 4 4 3 3 5 6 6 6 7 8 8 7 7 7 5 2 1 1 2 2 2 1 2 2 2 2 2 1 2 2 2 3 4 3 5 7 10 11 10 9 8 7 7 7 7 7 6 6 7 7 7 7 7 6 6 6 5 5 5 4 4 4 4 5 4 4 5 6 6 7 7 7 7
8 6 4 2 3 5 4 2 3 3 3 3 4 5 5 5 6 7 8 9 8 8 8 9 9 8 7 6 2 1 3 3 2 2 3 2 3 3 3 2 0 2 2 2 2 4 5 4 4 7 10 11 10 9 7 6 6 6 7 6 6 6 7 7 8 8 8 7 7 7 7 7 7 7 7 6 6 6 5 5 6 6 6 6 6 6 7
8 7 5 2 2 3 3 2 2 4 6 7 9 10 10 11 12 13 12 11 10 8 8 9 9 7 6 6 3 2 4 4 3 3 4 2 3 2 3 2 2 3 2 2 3 4 4 5 7 10 10 10 9 8 6 4 4 5 6 6 7 8 8 8 8 8 9 9 9 9 9 9 9 9 9 8 8 7 6 6 6 6 6 6 6 6 7
6 4 4 2 1 1 2 3 6 9 12 13 13 13 12 12 13 13 11 9 8 8 7 6 5 4 3 4 2 3 4 5 4 3 3 2 3 2 2 2 4 3 2 2 3 3 4 8 11 12 9 8 8 6 3 2 3 4 5 6 8 8 8 9 9 9 9 9 9 10 10 10 10 10 10 10 9 9 8 8 8 8 8 8 8 8 8
8 5 4 2 2 3 6 8 9 9 10 10 10 9 8 8 8 8 6 5 6 7 7 6 5 2 1 2 2 3 4 4 3 2 1 2 2 2 2 3 4 3 3 2 3 4 6 10 12 12 9 8 6 4 2 2 4 4 4 5 7 7 8 8 8 8 9 9 9 10 10 10 10 10 10 9 9 10 10 10 10 10 10 10 10 9 10
7 5 5 4 3 3 7 9 6 5 6 7 8 9 10 8 7 7 6 2 3 5 5 3 2 1 3 3 3 3 3 3 2 1 1 3 3 2 3 4 4 2 1 2 3 5 7 9 11 11 10 8 5 3 4 5 6 6 5 5 6 6 7 7 7 7 7 8 8 9 9 9 9 9 9 9 8 9 10 11 11 11 11 12 12 12 11
6 5 7 9 10 9 9 9 8 8 10 13 15 17 16 14 14 13 11 6 2 3 2 0 1 2 3 4 3 1 1 2 2 2 4 4 3 2 3 4 3 2 3 6 7 7 7 9 9 9 8 7 5 5 6 6 7 7 7 6 5 5 5 4 4 5 5 6 6 7 8 8 8 8 8 8 8 7 8 9 10 10 10 11 12 12 12
6 6 7 10 14 15 13 13 13 13 14 15 17 18 17 16 16 16 13 9 4 2 3 4 3 3 3 3 1 1 1 1 3 4 4 3 3 3 4 5 3 3 6 9 10 8 8 8 8 7 6 6 5 6 6 6 7 7 8 7 6 5 4 4 3 4 4 4 5 5 5 6 7 7 7 7 7 7 7 8 8 9 9 10 10 10 10
Wind_Direction
313 317 318 317 316 317 321 323 327 334 340 343 341 330 319 290 282 299 305 293 272 239 247 249 233 232 243 247 249 251 251 249 248 243 235 231 227 226 234 236 237 242 240 238 238 233 237 239 234 237 233 224 228 227 223 236 220 203 209 209 199 206 216 216 229 230 219 222 218 208 213 222 227 222 215 216 218 219 226 229 225 228 228 227 237 241 234
313 315 315 315 315 316 319 320 324 331 337 340 338 328 312 296 289 289 291 275 226 228 255 255 244 245 242 242 248 248 248 247 245 241 234 227 225 226 228 229 231 235 235 235 236 232 232 239 236 238 244 233 234 243 245 240 224 203 205 199 181 190 209 207 219 226 216 220 216 203 206 217 225 226 220 219 221 222 226 230 231 234 230 228 233 236 228
307 308 308 310 313 315 318 320 322 325 329 334 334 324 309 300 285 268 256 229 215 235 266 276 275 269 257 258 260 251 247 244 239 241 243 236 233 233 230 228 228 230 233 233 234 234 234 237 234 233 239 234 231 237 236 234 230 222 240 238 181 191 207 202 211 218 209 212 211 202 205 210 219 228 225 221 222 223 225 227 229 232 231 231 235 237 233
303 302 302 304 306 308 311 314 316 318 321 326 328 317 304 300 292 276 260 232 227 243 257 259 261 270 277 279 271 258 253 243 234 235 241 239 238 242 238 231 227 224 226 229 230 230 230 233 235 233 233 227 221 224 226 229 227 230 274 279 219 217 219 206 217 229 225 220 217 211 212 213 215 222 225 225 223 225 227 228 229 230 229 232 238 242 240
300 299 299 299 299 299 303 306 308 310 311 317 322 308 289 281 282 294 300 280 261 248 239 243 254 272 283 290 288 278 273 266 241 227 231 235 232 236 240 232 229 222 219 224 228 227 225 227 230 234 235 233 219 207 212 221 221 233 265 244 222 235 231 214 221 234 238 239 233 221 218 220 221 220 221 224 224 225 228 230 233 234 233 233 231 231 235
299 298 297 295 295 295 297 298 300 301 300 306 313 300 279 267 277 298 314 303 278 269 283 310 310 289 282 280 281 281 277 277 264 236 234 235 226 227 232 228 229 231 226 225 227 226 226 226 228 230 232 234 234 221 216 219 217 222 233 221 212 232 233 223 226 231 234 238 238 235 229 225 227 226 222 222 223 224 227 232 235 236 238 240 231 224 227
299 298 296 295 294 293 293 295 294 293 292 294 295 286 276 274 278 288 296 285 285 302 312 316 306 287 283 276 265 271 271 267 267 264 257 242 228 226 228 225 227 229 229 231 229 225 226 225 223 224 225 226 232 235 229 221 217 221 227 217 206 224 234 232 234 235 233 233 234 237 236 230 228 229 229 227 226 225 226 230 233 234 239 245 242 236 233
299 296 295 295 293 291 292 293 288 284 285 285 278 268 269 281 286 289 296 291 287 290 291 292 290 280 278 272 264 266 265 266 280 292 277 263 246 232 229 234 243 235 228 229 232 230 236 241 232 223 222 219 221 231 236 228 215 216 226 216 196 211 231 233 239 242 236 232 232 235 238 238 233 230 230 232 231 229 227 227 229 232 236 238 240 242 240
301 297 295 294 292 289 289 288 282 277 276 274 271 264 260 273 285 286 289 288 281 276 274 273 278 278 268 267 270 270 271 293 324 313 278 267 268 264 266 291 312 284 239 229 234 237 247 263 268 267 253 243 243 244 242 239 221 211 218 208 188 207 225 225 241 248 235 228 229 230 235 240 239 234 230 231 232 233 232 229 227 229 232 233 235 238 238
302 300 299 296 293 288 286 285 280 273 266 260 260 261 259 264 273 270 269 276 277 275 272 263 264 269 268 276 291 292 297 321 333 315 281 265 271 306 335 335 325 302 264 241 261 299 312 300 289 287 280 271 272 270 260 257 249 225 217 207 189 205 218 217 234 246 241 232 228 229 230 233 235 232 229 230 232 233 235 235 231 228 230 233 234 235 237
300 300 299 298 297 293 287 282 277 271 265 258 252 251 253 255 265 270 268 270 270 267 264 258 254 259 274 292 303 298 297 311 314 298 289 291 300 322 332 324 307 287 296 322 328 321 311 295 279 271 265 260 259 257 255 255 252 238 227 217 196 191 199 215 234 250 248 236 229 233 234 230 229 226 224 227 229 231 234 237 235 232 230 234 239 241 238
297 298 298 296 296 296 290 280 273 267 264 261 256 253 252 248 250 257 259 267 273 268 263 263 265 274 285 290 295 293 289 295 298 288 285 291 298 306 312 308 292 288 327 335 324 314 302 283 263 250 246 247 247 245 244 243 240 234 230 225 213 202 201 213 230 250 251 233 219 227 230 228 234 240 235 234 233 234 237 239 240 239 235 235 238 240 241
295 295 296 295 294 294 291 282 274 267 263 261 259 254 248 243 241 243 248 264 273 269 269 273 276 279 281 281 283 281 278 284 290 284 278 280 288 295 297 291 286 296 320 324 314 307 297 268 246 234 230 230 234 238 237 234 233 231 228 226 223 217 217 222 224 239 246 234 223 229 236 243 245 248 264 263 245 237 237 238 237 237 237 237 235 235 238
293 293 293 293 293 293 291 283 274 268 264 262 261 258 249 237 233 238 246 253 265 274 278 279 277 276 278 285 290 281 275 285 288 280 274 276 281 288 289 287 291 302 311 312 302 287 263 244 236 225 219 216 219 227 228 226 227 226 224 224 221 215 217 224 225 225 238 246 241 239 246 253 250 251 348 344 290 260 254 252 239 232 235 237 234 234 233
290 291 291 291 290 290 290 284 273 269 266 261 260 262 253 237 232 236 242 246 266 278 273 270 277 286 296 307 306 294 282 289 292 285 281 277 277 284 290 297 304 304 300 295 282 263 245 234 226 215 208 207 210 213 214 214 217 218 218 218 214 210 207 211 216 209 206 239 248 241 238 234 224 41 29 10 343 326 315 288 250 233 234 233 232 233 228
289 290 290 290 289 288 288 284 275 269 266 261 259 260 256 242 234 237 242 245 253 266 276 300 302 295 298 297 287 278 276 282 297 298 286 279 293 302 307 312 308 293 283 280 265 255 251 233 224 222 214 208 209 207 201 198 198 203 207 206 205 207 201 200 219 220 211 224 239 242 240 222 110 54 8 352 339 334 322 267 242 235 236 232 228 226 222
288 288 287 288 289 289 287 284 278 270 264 260 257 256 257 249 239 237 240 240 240 254 273 294 296 284 282 282 274 277 292 296 299 299 291 300 312 314 318 324 320 268 257 279 270 243 244 233 226 227 219 212 213 208 199 197 189 183 191 195 199 203 197 196 215 220 211 215 229 243 246 231 61 26 353 339 327 308 245 236 237 285 294 266 242 228 223
289 287 286 287 289 288 284 282 278 271 266 262 257 255 255 252 245 241 240 240 241 254 262 273 281 276 276 286 289 295 307 308 303 305 295 288 304 323 322 323 330 248 248 276 271 242 245 239 232 229 224 223 225 217 204 201 192 178 179 188 195 200 200 202 213 216 211 213 223 238 240 202 28 1 346 331 290 236 223 236 290 334 325 318 293 254 236
289 286 285 289 291 288 284 281 278 272 267 262 257 255 254 249 246 244 240 235 234 246 256 264 275 276 274 278 280 277 281 284 284 299 292 268 330 338 317 294 303 322 282 268 259 247 237 231 231 230 223 223 234 251 241 220 201 179 178 188 198 200 200 205 213 215 217 219 226 235 225 144 16 350 346 334 248 232 261 315 321 315 310 318 312 278 256
289 286 285 290 293 291 286 281 277 272 266 261 257 256 256 249 245 245 240 235 237 254 263 265 269 271 271 270 266 264 265 265 260 266 272 276 334 337 311 215 91 352 306 260 250 239 228 231 234 230 220 215 236 299 245 226 262 236 194 193 198 201 203 207 208 207 214 217 223 233 223 127 30 358 350 17 277 305 329 324 313 315 320 318 308 285 262
289 287 285 289 292 293 289 281 275 270 266 262 259 261 260 252 246 247 246 244 246 256 266 270 272 275 275 268 262 260 261 260 256 261 274 286 309 322 301 292 339 333 326 312 281 240 236 252 235 228 232 210 192 294 252 181 315 297 247 211 202 203 212 214 203 199 212 219 217 222 187 85 61 43 34 333 315 314 318 316 312 324 333 329 346 352 220
290 286 285 289 294 294 290 282 275 269 265 261 259 259 257 252 247 247 247 246 245 251 262 273 278 278 275 268 262 258 255 255 256 258 266 276 279 272 276 299 307 285 275 323 313 296 320 315 287 259 250 188 149 234 250 216 220 252 258 235 219 227 311 265 219 197 212 238 218 79 70 77 80 77 58 350 327 317 312 317 332 359 17 42 73 90 129
290 286 287 291 295 294 288 280 274 267 263 262 258 254 251 250 246 243 247 254 256 262 271 274 274 275 273 267 264 261 256 253 250 246 246 254 265 264 263 271 278 267 260 285 318 332 329 314 300 295 278 307 11 248 244 235 215 216 220 192 128 53 14 283 235 161 140 74 69 77 72 75 80 75 56 21 355 344 340 349 24 67 77 76 81 92 102
291 288 290 293 294 294 288 278 271 267 261 259 258 256 254 250 246 246 254 260 264 273 279 273 266 268 272 272 271 268 255 246 243 241 237 236 243 255 258 252 247 244 245 268 306 313 311 296 288 289 274 279 312 216 251 248 202 220 243 170 108 52 9 302 187 155 178 137 79 73 60 65 73 68 51 27 8 3 8 22 43 68 80 77 75 81 89
297 294 296 297 295 290 283 275 269 267 263 257 258 260 256 251 252 258 259 257 261 275 287 283 277 277 280 280 274 264 250 240 237 236 230 225 229 235 243 246 238 248 274 300 308 307 308 302 281 284 298 294 291 188 238 267 331 352 349 77 72 359 338 335 47 132 148 92 70 66 59 61 66 66 51 19 5 13 25 40 53 60 71 77 73 67 65
305 306 304 301 296 287 280 274 269 265 262 259 259 262 260 255 256 261 258 257 264 268 266 279 288 288 283 279 273 263 255 246 234 229 227 225 228 233 241 254 268 279 290 297 296 291 287 277 261 266 290 296 298 289 212 259 302 314 52 47 353 300 298 344 351 165 118 99 105 103 84 64 59 61 42 355 351 16 32 40 49 51 60 73 77 70 61
311 312 310 303 295 287 282 277 273 270 267 267 265 262 262 258 254 257 257 256 264 269 262 279 297 303 298 287 280 269 256 243 231 227 228 227 227 231 238 248 259 271 284 294 294 283 268 252 255 267 274 276 278 281 204 228 280 276 91 33 355 320 312 1 278 202 137 104 140 133 105 69 64 73 52 339 349 21 36 39 43 43 49 64 73 73 70
317 312 311 306 297 295 290 285 285 283 278 278 272 262 262 265 262 263 265 262 261 269 277 288 296 300 301 295 285 270 249 234 223 223 225 223 224 227 231 238 246 253 262 274 284 285 271 271 283 285 291 295 278 269 250 208 214 118 45 8 351 347 346 330 296 211 45 37 130 122 74 56 76 100 145 289 3 31 41 44 46 43 44 55 66 69 67
331 321 315 313 309 308 306 302 299 293 284 283 285 281 279 276 270 269 269 261 254 261 275 288 293 294 297 301 297 284 253 227 217 217 218 218 219 222 225 229 233 237 241 246 258 276 275 273 278 273 277 293 290 257 239 185 139 64 29 8 355 356 352 334 315 304 14 15 140 128 96 86 82 88 136 176 91 51 48 52 57 52 46 49 58 63 60
342 334 324 319 317 317 315 307 297 288 282 283 291 294 286 276 284 292 277 249 238 251 268 281 289 293 297 298 293 282 248 217 211 211 211 212 213 217 220 224 226 228 232 237 246 254 246 255 266 264 267 286 300 276 239 146 109 64 35 29 19 8 11 360 322 265 75 77 120 119 107 102 98 86 85 111 142 125 62 58 67 69 61 55 55 59 59
341 334 323 316 314 312 310 303 291 290 293 290 289 292 285 278 308 324 308 229 222 241 258 266 278 290 294 290 279 278 272 232 212 207 205 208 211 212 214 216 217 217 221 231 244 253 254 258 271 283 286 291 299 294 292 120 110 73 40 41 47 49 53 57 57 70 94 120 127 117 107 103 106 99 84 85 107 124 109 85 76 72 68 63 58 58 60
348 343 334 325 316 305 304 305 303 302 301 290 282 286 289 287 290 298 300 204 220 237 252 274 288 290 297 309 302 294 275 224 205 199 198 201 204 203 202 207 214 217 223 242 261 258 252 254 257 290 357 301 279 315 4 38 79 71 53 60 67 63 57 60 65 68 72 92 110 107 93 78 76 79 78 82 90 96 98 95 86 74 68 65 61 59 59
349 344 335 325 314 308 309 309 306 303 299 297 295 291 286 283 279 266 236 223 239 251 262 288 304 295 301 316 318 318 277 203 194 188 189 191 189 187 188 195 209 219 222 234 257 253 250 254 242 143 87 311 296 58 63 66 82 90 81 74 72 67 62 65 74 77 74 73 81 87 77 59 58 66 76 85 90 87 84 86 89 84 76 70 65 60 57
342 339 336 331 323 317 312 308 309 311 305 300 299 295 287 285 280 267 243 230 239 258 261 268 290 306 308 305 306 56 39 193 182 179 186 187 184 181 176 178 190 205 204 213 237 246 241 245 181 140 134 87 69 82 80 84 99 105 93 78 76 75 69 65 67 72 74 72 73 76 75 72 74 75 70 69 74 75 71 71 77 79 73 67 63 60 57
340 340 338 333 325 319 312 307 306 302 290 284 276 275 287 287 282 281 266 237 237 256 262 263 283 313 318 306 333 53 19 347 183 178 174 171 177 182 169 166 181 195 187 202 232 234 191 129 93 125 118 77 75 81 72 90 111 114 95 75 74 77 74 68 65 68 75 77 73 69 71 75 75 67 54 49 56 62 59 52 52 57 58 55 52 50 47
342 340 337 333 331 328 323 316 303 272 263 276 284 283 286 286 280 275 268 250 246 265 297 308 305 310 316 312 330 359 347 320 178 168 157 158 171 183 177 170 174 172 173 193 219 187 139 158 111 108 97 83 84 77 58 81 104 106 93 83 89 93 93 90 85 81 81 80 75 69 64 62 63 60 51 45 48 53 50 43 40 42 43 39 34 29 23
343 342 342 342 338 328 315 304 302 284 274 281 285 282 280 278 272 259 254 255 251 251 265 287 297 290 291 295 305 323 327 301 164 164 168 162 159 171 179 178 161 161 174 180 132 97 89 91 100 88 81 81 81 77 73 81 90 95 96 99 103 106 105 101 96 91 85 77 74 72 64 49 44 52 51 42 31 28 31 34 36 36 31 20 13 12 9
345 349 352 345 333 330 335 311 295 302 306 297 287 283 271 255 244 234 227 229 232 229 231 243 261 265 264 267 288 315 328 306 213 184 172 164 155 166 179 168 134 151 161 123 107 108 91 93 102 92 88 93 84 75 79 87 90 96 103 105 109 115 119 118 112 103 93 85 83 84 73 35 6 23 37 29 13 6 5 10 21 26 18 4 359 3 6
348 349 347 337 332 337 333 312 301 307 315 301 281 279 263 238 247 254 206 180 190 220 225 227 239 250 263 279 298 319 326 301 268 181 154 158 160 177 179 158 145 175 168 122 117 135 107 103 112 105 101 101 82 67 70 81 90 98 104 109 116 122 125 126 119 102 101 129 153 140 129 294 315 355 20 24 22 12 359 359 12 19 8 352 352 3 17
357 350 337 324 322 319 311 307 310 318 316 282 269 278 274 247 258 312 326 236 221 211 211 233 258 257 278 297 307 333 344 333 310 299 141 135 126 198 176 150 154 189 166 124 117 158 148 129 120 109 103 99 86 75 73 77 83 87 94 104 118 130 143 156 160 154 177 194 185 180 198 231 269 335 357 5 19 25 13 12 17 14 358 346 351 8 24
344 337 322 313 316 317 316 318 320 304 283 279 277 283 291 276 253 269 278 291 357 130 179 293 315 319 308 306 298 311 334 335 305 287 304 70 63 335 144 136 161 197 153 114 358 236 152 124 109 98 79 77 84 87 83 79 80 83 86 94 105 120 138 152 154 148 156 171 173 176 186 209 310 344 356 3 3 1 4 6 6 6 1 356 359 13 22
321 312 309 313 320 324 323 328 331 301 282 294 294 274 279 292 279 256 249 301 359 31 26 325 332 335 323 313 298 289 311 331 313 280 271 87 53 356 120 137 203 208 114 66 328 255 131 106 97 89 53 56 75 86 84 79 79 80 81 83 90 104 118 124 124 123 128 137 150 154 137 60 20 16 21 15 356 353 358 360 1 6 5 6 13 20 21
322 318 317 319 324 324 311 313 328 313 283 300 326 315 317 342 338 318 32 6 343 349 6 357 343 333 325 320 303 273 272 308 319 296 312 65 38 348 135 125 106 88 81 30 337 127 108 80 92 111 86 69 79 86 83 77 76 77 78 80 83 90 97 102 106 110 111 110 110 103 81 62 57 50 42 35 26 33 37 26 20 19 18 20 26 26 22
338 332 331 324 320 325 325 329 342 342 343 356 354 336 338 358 3 357 8 3 348 349 0 357 347 344 337 325 311 284 259 282 320 331 41 60 42 336 45 74 64 94 113 63 48 89 84 55 79 106 105 94 89 88 84 81 84 87 87 86 87 90 91 91 91 93 93 93 95 92 84 80 73 58 49 49 53 60 70 65 50 40 36 37 35 28 23
358 339 336 353 352 353 355 352 345 348 351 351 346 341 343 347 343 347 355 347 330 327 341 347 340 327 312 302 297 300 344 19 50 37 14 52 82 47 34 55 77 86 84 55 39 71 87 74 69 86 93 91 88 89 91 92 95 100 101 97 94 96 97 96 95 94 93 92 91 86 83 83 79 69 63 61 59 61 62 55 41 33 33 37 36 28 27
26 9 1 16 11 5 4 359 354 360 354 327 317 311 306 306 304 307 314 317 313 313 321 323 319 314 309 302 298 345 347 2 57 35 342 4 85 47 346 312 134 78 64 58 54 73 94 99 83 84 87 84 82 88 97 102 105 111 114 113 111 108 107 105 103 102 99 97 94 87 81 78 76 73 71 71 70 66 57 44 35 31 31 33 35 32 34
37 20 18 35 19 1 1 349 302 284 277 282 289 289 286 289 293 292 289 288 287 281 281 289 298 301 295 287 290 22 21 27 51 28 354 29 89 50 319 320 74 60 48 76 88 96 113 112 97 91 89 86 85 92 101 111 120 125 124 120 114 111 110 109 106 101 96 92 88 82 76 73 72 72 72 72 71 70 63 53 48 47 45 43 42 41 40
38 24 25 37 26 333 333 308 287 282 278 276 275 276 273 271 273 277 277 274 266 250 235 243 267 280 277 280 306 43 38 29 37 29 2 26 72 53 357 48 69 48 28 73 97 103 101 98 98 101 103 102 102 104 105 101 110 116 117 113 110 110 112 112 107 100 93 88 83 78 73 69 66 66 67 68 69 67 64 59 56 56 56 55 52 48 45
39 42 40 55 179 233 274 279 280 286 287 277 269 271 271 263 265 277 280 261 244 232 222 230 248 265 24 20 26 42 30 18 25 28 356 28 67 64 35 58 66 49 22 37 67 71 77 91 103 110 109 103 101 99 79 73 86 95 102 112 116 116 114 111 106 99 93 87 81 75 71 67 65 62 60 61 61 61 58 54 52 52 52 51 49 47 44
28 37 34 30 22 321 299 293 296 324 342 353 3 2 357 358 3 4 2 326 237 218 208 218 240 69 65 48 35 38 29 13 6 25 51 55 56 45 44 60 64 51 27 56 73 76 79 89 100 106 104 99 93 78 67 73 78 78 85 110 131 133 123 112 105 100 94 89 83 77 71 67 65 60 57 57 59 58 55 51 48 48 48 47 46 45 42
5 25 34 29 23 9 352 352 6 11 8 13 15 10 5 6 9 8 6 357 295 222 200 164 42 80 78 60 45 23 302 315 351 34 53 49 21 11 63 85 99 131 117 100 92 87 86 89 96 101 100 95 87 77 72 72 71 69 72 85 109 126 124 112 103 98 92 84 78 75 71 68 64 60 57 57 58 57 53 48 44 42 42 41 40 39 38
357 358 11 21 20 14 8 9 10 7 7 12 12 8 5 4 1 1 7 15 24 54 63 51 43 54 60 59 77 186 211 19 27 38 48 43 11 16 60 76 74 76 93 96 94 90 88 90 93 92 87 84 86 86 79 71 68 68 68 71 78 88 94 88 77 73 72 70 67 67 67 66 62 57 55 56 55 53 50 46 40 35 34 33 31 30 30
Height
1501 1499 1498 1496 1495 1494 1492 1490 1488 1487 1485 1483 1482 1480 1479 1476 1469 1464 1463 1462 1462 1462 1457 1447 1442 1438 1435 1433 1431 1430 1431 1429 1428 1426 1424 1424 1423 1424 1423 1422 1422 1421 1418 1417 1416 1415 1416 1415 1413 1413 1413 1411 1408 1405 1406 1408 1405 1406 1412 1411 1409 1413 1422 1431 1431 1422 1416 1412 1407 1407 1410 1414 1418 1417 1416 1421 1425 1426 1430 1436 1437 1437 1439 1440 1445 1450 1438
1499 1497 1496 1494 1493 1492 1490 1489 1488 1486 1485 1484 1482 1481 1479 1475 1469 1463 1461 1460 1460 1459 1452 1443 1436 1432 1431 1431 1430 1429 1428 1427 1425 1424 1421 1420 1419 1419 1419 1418 1419 1418 1416 1416 1415 1415 1416 1414 1411 1412 1412 1409 1407 1405 1406 1408 1406 1406 1408 1406 1408 1416 1422 1428 1434 1435 1432 1427 1420 1417 1416 1417 1418 1415 1412 1414 1416 1419 1422 1425 1430 1433 1433 1434 1441 1445 1433
1497 1495 1494 1493 1492 1491 1489 1488 1487 1486 1485 1484 1483 1482 1478 1473 1466 1460 1458 1458 1457 1455 1448 1442 1438 1434 1432 1432 1431 1429 1426 1424 1424 1422 1419 1417 1416 1415 1414 1414 1415 1414 1415 1415 1413 1412 1414 1413 1410 1410 1410 1407 1404 1404 1406 1407 1406 1404 1404 1402 1404 1413 1418 1421 1429 1437 1441 1438 1429 1424 1420 1417 1416 1414 1411 1411 1412 1416 1421 1425 1430 1433 1431 1429 1431 1433 1426
1494 1493 1492 1491 1490 1489 1488 1487 1486 1485 1484 1483 1482 1481 1479 1474 1466 1458 1455 1453 1453 1450 1447 1444 1442 1439 1438 1437 1433 1428 1424 1421 1420 1420 1418 1416 1415 1413 1412 1411 1411 1412 1413 1413 1413 1410 1409 1411 1410 1409 1408 1406 1402 1402 1404 1405 1404 1404 1405 1405 1406 1411 1411 1413 1418 1420 1420 1420 1415 1410 1411 1415 1417 1416 1413 1411 1411 1412 1416 1422 1426 1427 1429 1430 1425 1424 1424
1492 1491 1490 1489 1488 1487 1486 1485 1484 1483 1483 1482 1481 1480 1478 1475 1467 1459 1456 1454 1450 1445 1442 1442 1442 1441 1441 1440 1434 1429 1425 1420 1417 1416 1415 1414 1414 1413 1411 1410 1410 1410 1410 1411 1411 1409 1407 1408 1409 1409 1408 1404 1400 1400 1402 1403 1403 1405 1405 1405 1407 1413 1413 1410 1412 1411 1406 1405 1403 1401 1404 1409 1412 1412 1412 1411 1410 1410 1413 1417 1418 1417 1426 1430 1422 1419 1424
1490 1488 1488 1487 1486 1485 1484 1483 1482 1482 1481 1481 1480 1479 1476 1472 1465 1460 1461 1459 1453 1447 1443 1443 1445 1444 1442 1440 1436 1433 1429 1424 1419 1415 1412 1410 1410 1410 1410 1409 1408 1407 1407 1408 1409 1408 1408 1408 1407 1407 1407 1405 1403 1401 1401 1400 1401 1402 1403 1401 1403 1412 1414 1408 1407 1409 1404 1401 1400 1398 1400 1403 1405 1405 1407 1408 1409 1410 1412 1413 1412 1412 1420 1423 1417 1416 1421
1487 1486 1485 1484 1483 1482 1481 1481 1481 1480 1480 1479 1478 1477 1473 1469 1465 1461 1462 1461 1456 1453 1451 1449 1448 1445 1441 1438 1435 1433 1430 1425 1420 1415 1413 1411 1407 1407 1408 1407 1405 1405 1404 1405 1406 1406 1407 1407 1405 1404 1405 1406 1406 1405 1402 1399 1397 1398 1399 1397 1399 1409 1411 1405 1404 1405 1402 1399 1398 1395 1395 1398 1400 1400 1401 1402 1403 1404 1407 1408 1407 1408 1411 1412 1412 1414 1414
1484 1483 1482 1481 1480 1480 1479 1479 1478 1477 1477 1477 1476 1475 1472 1469 1466 1463 1463 1461 1458 1456 1454 1452 1449 1444 1441 1438 1434 1431 1428 1425 1421 1419 1420 1417 1410 1406 1406 1404 1403 1402 1400 1401 1402 1401 1402 1402 1401 1401 1403 1404 1403 1403 1401 1396 1394 1395 1396 1395 1398 1406 1409 1403 1401 1404 1401 1395 1393 1393 1394 1394 1395 1396 1395 1395 1397 1398 1400 1401 1402 1405 1408 1407 1408 1412 1409
1480 1479 1479 1478 1477 1477 1476 1476 1475 1475 1475 1474 1472 1472 1471 1470 1468 1467 1466 1461 1457 1455 1452 1450 1449 1444 1440 1437 1433 1430 1429 1428 1427 1425 1421 1419 1415 1409 1408 1409 1407 1403 1400 1400 1400 1399 1400 1401 1400 1400 1402 1402 1400 1399 1397 1395 1395 1395 1395 1396 1398 1403 1406 1402 1403 1408 1403 1392 1392 1393 1392 1392 1393 1393 1392 1392 1394 1395 1394 1393 1394 1398 1402 1405 1407 1408 1405
1477 1476 1475 1474 1474 1474 1473 1473 1472 1472 1472 1471 1470 1469 1468 1468 1468 1468 1467 1461 1455 1453 1450 1448 1447 1442 1437 1435 1434 1434 1433 1432 1433 1430 1421 1416 1416 1414 1414 1415 1412 1408 1404 1404 1403 1403 1403 1403 1403 1403 1403 1401 1400 1399 1397 1395 1396 1396 1395 1396 1398 1401 1404 1403 1405 1411 1404 1393 1390 1390 1391 1400 1400 1392 1388 1389 1389 1390 1389 1387 1386 1387 1392 1399 1401 1397 1394
1474 1474 1473 1472 1471 1470 1470 1470 1469 1469 1469 1467 1467 1467 1467 1467 1466 1465 1465 1460 1453 1450 1447 1444 1443 1439 1436 1436 1436 1435 1434 1434 1435 1434 1426 1418 1417 1419 1419 1418 1415 1411 1408 1407 1407 1407 1406 1405 1404 1403 1403 1402 1399 1399 1398 1396 1395 1395 1394 1396 1398 1400 1403 1403 1404 1410 1406 1394 1388 1393 1402 1409 1398 1379 1375 1379 1381 1384 1387 1385 1382 1380 1381 1384 1385 1384 1384
1471 1470 1469 1468 1468 1467 1466 1466 1466 1466 1465 1464 1464 1464 1464 1465 1465 1464 1463 1459 1451 1447 1443 1440 1439 1438 1437 1438 1437 1436 1435 1434 1434 1434 1430 1423 1421 1422 1421 1419 1417 1413 1409 1409 1409 1407 1405 1403 1401 1399 1399 1399 1397 1396 1396 1395 1394 1393 1392 1395 1399 1400 1403 1403 1403 1407 1405 1394 1396 1413 1417 1402 1382 1371 1369 1371 1373 1375 1379 1380 1377 1376 1376 1377 1379 1381 1380
1468 1467 1466 1465 1464 1464 1463 1463 1463 1462 1462 1461 1461 1462 1462 1463 1463 1462 1461 1459 1452 1446 1442 1439 1439 1439 1438 1437 1436 1434 1433 1432 1432 1432 1430 1425 1422 1422 1421 1420 1417 1413 1412 1411 1409 1407 1404 1400 1397 1396 1395 1394 1394 1394 1392 1392 1392 1391 1389 1391 1394 1399 1402 1402 1401 1403 1404 1402 1409 1418 1408 1386 1374 1375 1374 1373 1374 1374 1377 1380 1376 1372 1373 1374 1377 1378 1377
1465 1464 1463 1462 1461 1461 1460 1460 1460 1460 1459 1459 1459 1459 1460 1461 1461 1460 1460 1458 1452 1447 1445 1442 1438 1437 1436 1435 1434 1432 1430 1430 1430 1428 1427 1425 1421 1420 1420 1418 1416 1415 1414 1412 1408 1405 1402 1398 1396 1396 1393 1393 1395 1393 1388 1387 1388 1387 1388 1387 1388 1395 1400 1401 1402 1403 1406 1413 1415 1406 1395 1388 1385 1383 1381 1380 1381 1378 1380 1383 1375 1366 1366 1369 1371 1373 1373
1461 1460 1460 1459 1458 1458 1457 1457 1457 1457 1456 1457 1456 1456 1457 1457 1458 1458 1458 1456 1453 1449 1446 1443 1438 1436 1436 1436 1436 1433 1430 1429 1428 1426 1424 1423 1421 1419 1418 1417 1416 1415 1414 1412 1407 1402 1398 1398 1399 1398 1394 1393 1394 1389 1384 1383 1383 1381 1383 1385 1385 1390 1395 1398 1404 1404 1403 1415 1421 1410 1401 1399 1394 1388 1384 1383 1383 1380 1379 1384 1378 1366 1360 1362 1364 1367 1369
1458 1457 1456 1456 1455 1455 1454 1454 1454 1454 1453 1454 1453 1453 1453 1454 1454 1455 1455 1455 1454 1449 1443 1441 1441 1440 1440 1439 1437 1434 1431 1428 1427 1425 1422 1420 1419 1418 1417 1416 1414 1413 1412 1410 1406 1401 1399 1399 1398 1394 1389 1384 1383 1383 1379 1379 1381 1379 1378 1382 1385 1387 1390 1393 1400 1401 1400 1411 1422 1416 1404 1397 1392 1387 1384 1383 1383 1380 1380 1388 1384 1366 1357 1357 1358 1361 1364
1454 1454 1453 1453 1452 1452 1451 1451 1451 1451 1451 1451 1451 1451 1451 1451 1452 1453 1453 1453 1452 1447 1442 1442 1443 1441 1440 1437 1434 1432 1431 1429 1428 1427 1425 1422 1420 1418 1417 1415 1411 1410 1411 1408 1404 1404 1404 1399 1393 1389 1383 1375 1375 1380 1377 1374 1380 1383 1380 1381 1385 1387 1389 1392 1397 1399 1398 1404 1411 1406 1396 1390 1388 1385 1383 1383 1382 1381 1389 1398 1386 1365 1358 1358 1354 1355 1358
1451 1451 1451 1450 1450 1449 1448 1448 1448 1448 1448 1448 1448 1448 1448 1448 1449 1450 1450 1450 1449 1445 1442 1442 1441 1439 1438 1436 1434 1433 1433 1431 1430 1431 1427 1423 1421 1419 1418 1416 1412 1410 1410 1408 1406 1407 1406 1400 1394 1389 1384 1376 1372 1375 1374 1371 1375 1381 1381 1383 1386 1387 1387 1390 1393 1393 1394 1398 1402 1399 1391 1387 1386 1383 1381 1381 1382 1385 1394 1394 1379 1367 1366 1363 1358 1356 1355
1448 1448 1448 1448 1447 1447 1446 1445 1445 1445 1445 1446 1445 1445 1446 1446 1447 1448 1448 1448 1447 1443 1440 1440 1440 1438 1437 1437 1436 1435 1435 1434 1433 1433 1429 1423 1421 1420 1418 1416 1414 1413 1410 1407 1408 1409 1406 1400 1392 1386 1386 1385 1380 1378 1378 1373 1369 1372 1378 1383 1386 1386 1387 1389 1389 1388 1387 1389 1394 1396 1392 1386 1384 1381 1380 1382 1387 1390 1388 1381 1374 1371 1368 1365 1363 1362 1358
1445 1445 1445 1445 1445 1444 1443 1443 1443 1443 1443 1444 1443 1443 1443 1444 1445 1445 1444 1445 1444 1441 1437 1437 1437 1436 1435 1435 1434 1433 1433 1433 1432 1431 1428 1424 1423 1421 1417 1414 1415 1414 1410 1408 1408 1407 1405 1401 1394 1387 1387 1388 1385 1383 1382 1377 1372 1371 1373 1377 1379 1380 1384 1387 1385 1382 1384 1389 1394 1398 1393 1385 1380 1379 1381 1385 1389 1387 1382 1377 1374 1372 1368 1365 1365 1363 1361
1443 1443 1443 1443 1442 1442 1441 1441 1441 1441 1441 1442 1442 1441 1441 1441 1442 1442 1442 1443 1443 1439 1434 1434 1434 1434 1433 1433 1432 1432 1432 1431 1430 1429 1428 1426 1427 1425 1419 1416 1418 1417 1414 1412 1408 1404 1402 1400 1394 1389 1385 1383 1385 1386 1385 1385 1384 1377 1372 1373 1375 1374 1377 1379 1375 1374 1381 1387 1388 1387 1383 1377 1376 1379 1384 1388 1389 1386 1382 1379 1374 1371 1369 1368 1365 1363 1364
1441 1441 1441 1441 1440 1440 1439 1439 1439 1439 1439 1440 1439 1439 1439 1439 1440 1441 1440 1441 1440 1436 1432 1432 1432 1431 1430 1430 1429 1429 1429 1429 1429 1430 1429 1427 1427 1426 1422 1420 1420 1419 1417 1415 1412 1407 1403 1400 1395 1390 1385 1383 1386 1388 1389 1393 1395 1386 1377 1378 1379 1375 1374 1374 1371 1371 1374 1377 1377 1376 1376 1375 1375 1378 1383 1387 1388 1386 1384 1380 1376 1373 1372 1369 1366 1366 1366
1439 1439 1439 1439 1438 1438 1437 1437 1437 1437 1437 1437 1437 1437 1437 1438 1438 1439 1438 1438 1436 1433 1430 1430 1428 1426 1425 1424 1424 1423 1424 1425 1426 1426 1428 1428 1425 1423 1422 1420 1420 1419 1418 1418 1417 1413 1410 1407 1402 1396 1391 1387 1388 1389 1390 1392 1394 1389 1383 1380 1377 1374 1372 1372 1372 1372 1375 1377 1377 1378 1380 1378 1376 1377 1382 1386 1388 1387 1385 1382 1379 1377 1374 1371 1369 1368 1368
1437 1437 1437 1437 1436 1436 1436 1435 1435 1435 1435 1436 1436 1435 1436 1436 1436 1436 1436 1435 1435 1432 1428 1425 1423 1422 1421 1420 1420 1420 1420 1421 1421 1421 1424 1426 1423 1421 1420 1418 1418 1419 1417 1417 1418 1416 1413 1410 1404 1399 1396 1391 1389 1394 1397 1394 1388 1384 1381 1377 1374 1373 1373 1371 1372 1374 1378 1381 1381 1380 1382 1382 1377 1377 1382 1387 1390 1389 1387 1384 1382 1379 1376 1372 1370 1371 1373
1436 1436 1435 1435 1434 1434 1434 1434 1434 1434 1434 1434 1434 1434 1434 1435 1434 1435 1434 1434 1433 1432 1427 1421 1419 1419 1418 1417 1417 1418 1417 1417 1418 1419 1420 1421 1419 1418 1417 1416 1417 1418 1417 1417 1418 1416 1414 1411 1407 1403 1401 1395 1389 1391 1396 1394 1386 1380 1379 1380 1380 1377 1375 1374 1375 1376 1378 1383 1385 1384 1385 1384 1378 1377 1385 1392 1394 1392 1389 1386 1384 1381 1376 1371 1370 1373 1376
1435 1435 1434 1434 1433 1433 1433 1433 1433 1433 1433 1433 1433 1433 1433 1433 1433 1433 1433 1432 1431 1430 1426 1420 1416 1416 1417 1415 1414 1414 1415 1415 1416 1416 1416 1416 1416 1416 1416 1415 1416 1417 1416 1416 1417 1415 1412 1411 1407 1405 1402 1398 1392 1389 1390 1391 1387 1380 1379 1384 1384 1379 1377 1378 1379 1378 1380 1384 1386 1385 1386 1385 1381 1381 1389 1397 1397 1394 1391 1388 1386 1384 1379 1373 1372 1377 1381
1434 1434 1433 1433 1432 1432 1432 1432 1432 1432 1432 1432 1432 1432 1432 1432 1432 1432 1431 1431 1430 1427 1422 1417 1414 1414 1414 1411 1409 1410 1410 1410 1411 1412 1413 1413 1414 1415 1415 1415 1416 1416 1416 1415 1415 1413 1410 1407 1404 1401 1397 1394 1391 1387 1385 1387 1386 1380 1379 1383 1383 1381 1381 1381 1379 1380 1382 1385 1386 1386 1388 1390 1388 1388 1394 1400 1399 1396 1393 1389 1387 1387 1385 1381 1379 1383 1387
1433 1433 1433 1432 1432 1432 1432 1431 1431 1431 1431 1431 1431 1430 1430 1430 1430 1430 1429 1430 1430 1427 1422 1418 1415 1413 1411 1407 1405 1406 1407 1406 1407 1408 1409 1410 1412 1412 1413 1413 1414 1415 1416 1416 1414 1412 1409 1405 1401 1398 1395 1392 1390 1388 1385 1384 1383 1382 1385 1388 1387 1387 1388 1384 1381 1382 1385 1386 1387 1388 1390 1392 1393 1395 1399 1401 1400 1398 1395 1392 1391 1392 1392 1389 1387 1388 1392
1433 1432 1432 1432 1431 1431 1431 1431 1430 1431 1431 1430 1429 1429 1429 1428 1428 1428 1427 1428 1428 1427 1425 1421 1416 1411 1407 1404 1402 1403 1403 1403 1404 1405 1406 1408 1409 1409 1410 1411 1413 1413 1414 1415 1414 1413 1411 1407 1401 1398 1395 1392 1390 1388 1386 1385 1387 1390 1393 1394 1392 1391 1392 1389 1386 1387 1388 1389 1389 1390 1392 1395 1397 1399 1400 1401 1401 1400 1398 1396 1395 1395 1396 1395 1393 1393 1395
1433 1432 1432 1432 1431 1431 1431 1430 1430 1430 1430 1429 1429 1429 1428 1427 1427 1426 1425 1425 1426 1426 1425 1423 1417 1410 1405 1402 1400 1401 1401 1401 1402 1403 1403 1404 1405 1406 1407 1409 1411 1412 1413 1413 1412 1411 1409 1404 1398 1395 1394 1391 1391 1389 1385 1383 1389 1395 1397 1396 1395 1394 1393 1392 1390 1389 1390 1391 1392 1392 1394 1397 1400 1401 1402 1402 1400 1399 1400 1401 1400 1399 1400 1399 1397 1396 1398
1433 1432 1432 1431 1431 1431 1430 1430 1430 1429 1429 1429 1428 1428 1427 1426 1426 1425 1424 1424 1425 1425 1425 1423 1417 1409 1402 1400 1399 1398 1399 1399 1399 1400 1401 1402 1403 1405 1406 1408 1408 1409 1409 1409 1407 1406 1404 1400 1395 1393 1391 1391 1392 1389 1383 1380 1388 1397 1399 1398 1398 1396 1395 1394 1393 1392 1392 1394 1394 1394 1396 1400 1401 1403 1404 1404 1400 1399 1402 1404 1404 1403 1402 1402 1401 1401 1402
1433 1432 1432 1431 1431 1430 1430 1430 1429 1429 1428 1428 1428 1427 1427 1426 1425 1425 1425 1424 1424 1424 1424 1421 1415 1408 1401 1398 1397 1396 1396 1396 1397 1398 1399 1400 1402 1403 1405 1406 1406 1406 1406 1406 1404 1401 1399 1396 1393 1392 1391 1391 1391 1388 1385 1387 1395 1401 1402 1400 1400 1399 1398 1397 1396 1395 1396 1397 1396 1396 1399 1402 1403 1404 1406 1406 1403 1402 1404 1405 1406 1406 1406 1405 1404 1404 1405
1433 1432 1432 1431 1430 1430 1430 1429 1429 1429 1428 1427 1427 1426 1426 1425 1424 1424 1424 1424 1424 1424 1423 1421 1416 1409 1403 1398 1395 1394 1394 1394 1395 1396 1397 1398 1399 1401 1403 1404 1405 1405 1405 1404 1402 1399 1396 1394 1393 1393 1394 1393 1391 1391 1393 1398 1401 1403 1403 1402 1402 1402 1402 1400 1399 1398 1399 1399 1399 1400 1403 1405 1405 1406 1407 1407 1406 1406 1406 1407 1408 1409 1408 1407 1406 1406 1407
1433 1432 1432 1431 1430 1430 1429 1429 1428 1428 1427 1427 1426 1426 1425 1424 1424 1423 1423 1424 1423 1423 1422 1420 1416 1410 1403 1397 1393 1392 1392 1392 1393 1394 1395 1396 1397 1398 1400 1402 1404 1404 1403 1402 1399 1396 1394 1392 1392 1394 1395 1394 1393 1396 1400 1403 1403 1404 1404 1404 1404 1405 1404 1403 1402 1402 1402 1402 1403 1405 1407 1407 1407 1407 1408 1408 1408 1408 1409 1410 1410 1410 1409 1408 1408 1409 1410
1433 1432 1431 1431 1430 1429 1428 1428 1427 1427 1427 1426 1426 1425 1424 1423 1423 1423 1423 1423 1423 1422 1420 1418 1415 1411 1406 1399 1392 1390 1391 1391 1391 1391 1392 1394 1395 1396 1396 1399 1401 1400 1400 1399 1397 1394 1392 1392 1394 1395 1396 1397 1399 1402 1404 1404 1403 1404 1405 1406 1406 1406 1406 1406 1406 1407 1407 1406 1407 1409 1410 1410 1409 1409 1410 1409 1409 1410 1410 1411 1411 1410 1409 1409 1409 1410 1412
1433 1432 1431 1430 1429 1428 1427 1427 1427 1426 1426 1426 1425 1424 1423 1422 1422 1422 1422 1422 1422 1421 1419 1416 1415 1413 1409 1403 1397 1394 1393 1391 1389 1389 1390 1391 1392 1394 1394 1395 1396 1397 1396 1395 1393 1392 1392 1393 1395 1396 1398 1401 1406 1408 1406 1404 1404 1405 1407 1408 1407 1407 1408 1409 1410 1410 1410 1410 1410 1411 1412 1412 1411 1412 1413 1413 1413 1413 1413 1413 1413 1412 1411 1412 1412 1412 1412
1433 1431 1430 1429 1428 1428 1427 1427 1426 1426 1425 1425 1424 1423 1422 1421 1421 1422 1421 1421 1421 1421 1420 1418 1416 1413 1411 1408 1402 1397 1394 1390 1387 1388 1389 1388 1389 1391 1390 1390 1392 1393 1393 1393 1393 1393 1394 1394 1395 1399 1403 1407 1410 1410 1408 1407 1407 1407 1408 1410 1410 1409 1411 1412 1412 1412 1412 1412 1412 1413 1414 1414 1414 1414 1415 1415 1415 1415 1415 1415 1414 1414 1414 1414 1414 1414 1414
1432 1431 1430 1430 1429 1428 1428 1427 1426 1425 1424 1423 1423 1422 1421 1420 1420 1420 1420 1419 1419 1419 1419 1418 1415 1413 1412 1409 1402 1396 1394 1391 1386 1385 1386 1386 1387 1388 1388 1388 1391 1393 1393 1394 1395 1396 1396 1396 1398 1404 1409 1411 1411 1411 1410 1409 1409 1410 1411 1412 1412 1412 1412 1414 1415 1415 1415 1415 1415 1416 1417 1418 1417 1417 1416 1416 1417 1417 1416 1416 1415 1416 1416 1416 1416 1416 1416
1432 1431 1431 1430 1429 1429 1427 1426 1425 1424 1423 1423 1422 1421 1420 1419 1419 1417 1416 1416 1417 1416 1415 1413 1412 1411 1409 1405 1400 1396 1395 1391 1387 1384 1384 1385 1388 1389 1387 1387 1390 1393 1394 1395 1397 1399 1401 1401 1402 1406 1410 1412 1412 1413 1413 1412 1412 1413 1413 1414 1415 1415 1415 1416 1417 1417 1418 1418 1418 1419 1419 1419 1419 1419 1418 1418 1418 1419 1419 1418 1418 1419 1419 1419 1419 1419 1418
1433 1432 1432 1431 1429 1428 1427 1425 1424 1424 1423 1422 1422 1420 1419 1418 1416 1415 1414 1413 1412 1410 1409 1408 1407 1407 1406 1404 1400 1397 1395 1393 1391 1388 1385 1386 1388 1388 1387 1387 1390 1392 1393 1396 1397 1398 1401 1403 1405 1408 1412 1413 1413 1415 1415 1414 1414 1415 1415 1416 1417 1417 1417 1418 1418 1419 1419 1419 1420 1420 1420 1419 1419 1419 1419 1419 1419 1419 1420 1420 1420 1421 1421 1421 1421 1419 1417
1434 1433 1432 1430 1429 1427 1425 1424 1424 1423 1423 1422 1421 1420 1418 1416 1414 1413 1413 1410 1406 1405 1406 1406 1404 1403 1404 1403 1401 1399 1397 1395 1394 1392 1390 1389 1389 1388 1388 1389 1390 1391 1395 1400 1399 1396 1398 1402 1408 1412 1415 1415 1415 1416 1416 1416 1417 1417 1418 1418 1418 1418 1419 1419 1420 1420 1420 1420 1421 1421 1421 1420 1420 1419 1419 1419 1419 1419 1420 1420 1421 1421 1421 1421 1420 1418 1415
1433 1432 1431 1429 1427 1426 1425 1424 1424 1423 1422 1422 1421 1419 1416 1414 1412 1411 1410 1408 1405 1405 1405 1405 1404 1403 1403 1402 1401 1400 1398 1396 1394 1393 1392 1392 1391 1390 1390 1391 1390 1392 1399 1403 1402 1400 1402 1408 1414 1417 1418 1417 1416 1417 1418 1418 1419 1419 1419 1420 1420 1420 1420 1420 1421 1421 1421 1421 1421 1421 1421 1421 1421 1420 1420 1420 1421 1421 1421 1421 1421 1421 1421 1420 1418 1416 1413
1432 1431 1430 1429 1428 1427 1426 1425 1424 1423 1422 1421 1421 1419 1415 1412 1411 1409 1408 1407 1407 1407 1406 1406 1406 1404 1403 1402 1401 1399 1398 1397 1395 1392 1390 1392 1394 1393 1392 1393 1396 1400 1405 1407 1405 1404 1409 1414 1417 1419 1420 1419 1419 1419 1420 1420 1420 1421 1421 1421 1421 1421 1421 1421 1421 1422 1422 1422 1422 1422 1422 1422 1421 1421 1421 1422 1422 1422 1422 1422 1422 1422 1421 1420 1418 1416 1414
1431 1431 1430 1430 1429 1428 1427 1426 1425 1424 1423 1422 1420 1419 1416 1414 1412 1411 1410 1410 1410 1409 1408 1408 1408 1406 1405 1403 1401 1399 1397 1396 1396 1394 1393 1395 1398 1398 1397 1400 1403 1405 1407 1409 1409 1410 1414 1418 1419 1419 1421 1421 1421 1421 1422 1422 1422 1423 1423 1423 1423 1422 1422 1423 1423 1423 1423 1423 1423 1423 1422 1422 1422 1422 1422 1422 1422 1423 1423 1423 1423 1422 1421 1420 1418 1417 1416
1432 1431 1431 1431 1430 1430 1429 1429 1427 1426 1426 1425 1422 1420 1420 1418 1416 1414 1413 1413 1412 1411 1410 1410 1410 1409 1408 1404 1401 1399 1397 1395 1396 1397 1397 1398 1400 1402 1403 1405 1405 1406 1410 1416 1416 1415 1418 1422 1422 1421 1422 1423 1423 1423 1424 1424 1425 1425 1424 1424 1424 1424 1424 1424 1424 1424 1424 1424 1424 1423 1423 1423 1423 1423 1423 1423 1423 1423 1423 1423 1422 1421 1420 1419 1419 1418 1417
1434 1433 1432 1433 1434 1434 1434 1434 1433 1431 1429 1427 1425 1424 1423 1421 1418 1416 1415 1415 1413 1412 1411 1411 1410 1410 1408 1404 1401 1400 1398 1396 1397 1401 1400 1400 1404 1410 1411 1408 1407 1410 1416 1421 1421 1420 1423 1425 1424 1423 1424 1425 1425 1425 1426 1426 1426 1426 1426 1426 1426 1425 1425 1425 1426 1425 1425 1425 1425 1425 1425 1424 1424 1424 1424 1424 1424 1423 1423 1423 1422 1421 1421 1420 1420 1419 1418
1436 1436 1435 1435 1437 1438 1437 1436 1436 1434 1431 1428 1426 1425 1423 1421 1419 1417 1416 1415 1415 1413 1413 1412 1411 1410 1409 1405 1402 1401 1400 1398 1401 1405 1405 1405 1410 1415 1414 1410 1411 1416 1420 1423 1423 1424 1425 1425 1425 1425 1426 1426 1426 1427 1428 1428 1427 1427 1427 1427 1427 1427 1427 1427 1427 1427 1427 1427 1427 1426 1426 1426 1426 1426 1425 1425 1425 1425 1424 1424 1423 1423 1422 1422 1421 1420 1420
1437 1437 1437 1438 1441 1441 1439 1436 1434 1431 1428 1425 1423 1422 1420 1420 1418 1415 1413 1413 1413 1412 1412 1412 1410 1409 1408 1405 1403 1403 1402 1402 1405 1410 1411 1411 1414 1417 1416 1416 1419 1423 1424 1424 1424 1424 1423 1424 1426 1427 1428 1428 1429 1429 1429 1429 1429 1429 1428 1428 1428 1428 1429 1429 1429 1429 1429 1429 1428 1428 1428 1427 1427 1427 1427 1426 1426 1426 1426 1425 1425 1424 1424 1423 1422 1422 1421
1438 1439 1439 1440 1441 1440 1437 1435 1432 1428 1424 1421 1420 1418 1417 1416 1414 1411 1410 1410 1410 1410 1410 1410 1408 1407 1406 1405 1405 1407 1408 1408 1411 1415 1415 1414 1416 1418 1419 1420 1424 1427 1427 1426 1425 1424 1425 1426 1428 1428 1429 1430 1431 1431 1430 1430 1430 1429 1429 1429 1429 1429 1430 1430 1430 1430 1430 1430 1430 1429 1429 1429 1429 1428 1428 1428 1428 1427 1427 1427 1426 1425 1425 1424 1423 1423 1422
1441 1440 1440 1440 1439 1437 1434 1431 1428 1424 1420 1417 1417 1416 1414 1412 1411 1410 1409 1409 1409 1409 1408 1408 1407 1407 1408 1410 1412 1414 1415 1415 1416 1416 1416 1416 1417 1418 1420 1425 1430 1432 1430 1428 1426 1427 1427 1428 1428 1429 1430 1431 1431 1431 1431 1431 1430 1430 1430 1430 1430 1430 1430 1431 1431 1431 1431 1431 1430 1430 1430 1430 1430 1429 1429 1429 1429 1429 1428 1428 1427 1427 1426 1425 1424 1423 1423
1442 1442 1441 1440 1438 1436 1433 1430 1427 1424 1421 1419 1418 1416 1414 1412 1411 1410 1409 1408 1408 1407 1407 1406 1405 1406 1410 1416 1421 1421 1419 1417 1417 1418 1419 1420 1421 1422 1424 1429 1432 1432 1430 1429 1428 1428 1429 1429 1429 1430 1431 1431 1431 1431 1431 1431 1431 1431 1431 1431 1431 1431 1431 1431 1431 1431 1431 1431 1431 1431 1431 1431 1430 1430 1430 1430 1430 1430 1430 1429 1428 1427 1427 1426 1425 1424 1423
1445 1444 1442 1441 1439 1437 1435 1432 1430 1428 1426 1424 1422 1420 1417 1415 1413 1412 1410 1409 1408 1407 1406 1406 1406 1408 1412 1417 1421 1420 1420 1422 1424 1424 1425 1426 1426 1425 1426 1429 1430 1429 1429 1429 1429 1429 1430 1430 1430 1431 1431 1432 1432 1432 1431 1431 1432 1432 1431 1431 1432 1431 1431 1431 1431 1431 1432 1432 1432 1431 1431 1431 1431 1431 1431 1431 1431 1431 1430 1430 1429 1428 1428 1427 1426 1425 1424